Dati Storici

Data ora Umidita' aria (%) Temperatura aria (°C) Rad globale (W/m²) Gonioanemometro (°) Tacoanemometro (m/s) Pioggia (mm)
02-07-2020 00:10 97.7 % 22.416 220.032 1.338 0 0
02-07-2020 00:00 97.7 % 22.515 22.173 -0.002 0 0
01-07-2020 23:50 97.6 % 22.533 345.737 -0.01 0 0
01-07-2020 23:40 97.6 % 22.622 343.915 0.48 0 0
01-07-2020 23:30 97.6 % 22.65 14.255 0.549 0 0
01-07-2020 23:20 97.6 % 22.686 313.585 0.927 0 0
01-07-2020 23:10 93.8 % 22.674 13.065 1.353 0 0
01-07-2020 23:00 86.6 % 22.881 284.092 1.16 0 0
01-07-2020 22:50 83.3 % 23.364 333.866 0.972 0 0
01-07-2020 22:40 87.5 % 23.444 278.095 0.822 0 0
01-07-2020 22:30 86.9 % 23.608 42.572 0.399 0 0
01-07-2020 22:20 83.8 % 24.26 67.848 -0.01 0 0
01-07-2020 22:10 82.5 % 25.193 18.675 1.072 0 0
01-07-2020 22:00 82.6 % 25.52 327.488 2.164 0 0
01-07-2020 21:50 84.2 % 25.744 4.972 1.511 0 0
01-07-2020 21:40 84.3 % 26.029 184.769 1.582 0 0
01-07-2020 21:30 85.1 % 25.691 119.128 -0.029 0 0
01-07-2020 21:20 86.6 % 25.8 47.79 -0.029 0 0
01-07-2020 21:10 87.9 % 25.732 124.571 -0.021 0 0
01-07-2020 21:00 88.1 % 25.771 1.02 -0.022 0 0

I dati sono presentati in modo automatico a scopo informativo. In seguito a verifica i dati possono subire modifiche o essere invalidati e non riportati negli archivi definitivi.